C/2017 Y1 ( PanSTARRS )

Japanese version
Home page
Updated on March 3, 2018

---------------------------------------------------------------------

* Profile

Discovery Date December 24, 2017
Magnitude 20.6 mag
Discoverer Pan-STARRS 1 telescope (Haleakala)

* Orbital Elements

Epoch 2017 Sept. 4.0 TT = JDT 2458000.5
T 2017 Aug. 31.43977 TT                                 MPCW
q   3.7183342            (2000.0)            P               Q
z  +0.0002530      Peri.  134.43758     -0.10337714     -0.75148464
 +/-0.0000412      Node   307.51347     +0.50369378     +0.52534589
e   0.9990594      Incl.   55.23256     +0.85767461     -0.39910216
From 80 observations 2017 Dec. 24-2018 Feb. 13, mean residual 0".5.

* Magnitudes Graph

        m1 = 10.5 + 5 log d + 10.0 log r

---------------------------------------------------------------------

The orbital elements are published on M.P.E.C. 2018-D91.
The magnitudes graphs are made with Comet for Windows.

---------------------------------------------------------------------

Copyright(C) Seiichi Yoshida (comet@aerith.net). All rights reserved.